Vorticity
7 1 3 2 -1 0 4 -1 9 3 10 9 6 1 4 3 3 4 4 3 4 4 4 3 4 5 4 4 4 7 6 6 6 5 6 6 5 6 6 7 7 6 2
8 5 1 4 2 -1 2 2 3 4 -0 8 7 5 -6 7 5 6 5 4 5 5 4 5 6 6 7 8 7 7 6 5 4 5 5 6 7 5 7 6 7 7 7
4 6 5 3 -1 1 1 0 2 1 3 2 3 8 9 6 4 4 4 4 4 5 5 5 4 4 7 5 7 7 6 5 5 5 5 6 8 6 7 6 5 6 7
6 3 3 3 -0 -1 -3 8 7 5 -2 2 3 6 5 3 4 3 4 4 4 4 3 3 5 6 7 9 9 6 7 7 5 5 5 6 7 8 6 5 5 6 7
7 8 9 5 1 1 -1 1 -0 7 17 17 3 5 5 5 4 5 4 3 4 4 4 5 5 5 7 12 9 6 6 8 9 6 5 6 6 6 8 7 4 6 7
8 7 5 6 5 4 4 6 12 6 2 -1 7 5 5 4 5 4 4 4 3 4 4 5 5 5 4 10 8 6 6 7 9 9 7 6 5 7 7 9 6 5 5
8 8 11 4 4 1 2 0 13 6 4 10 8 5 4 4 5 4 4 3 3 5 5 6 5 6 3 7 7 6 7 7 6 8 9 8 6 7 7 7 8 5 4
7 6 8 4 8 4 4 1 5 5 8 7 8 5 3 4 4 4 4 5 5 7 8 8 7 6 5 4 6 4 6 6 6 6 8 8 7 6 8 6 8 7 4
6 5 6 6 5 11 29 13 6 12 -1 9 9 1 2 4 4 5 5 5 5 5 6 7 6 5 7 3 4 4 4 7 7 6 8 8 8 7 7 8 5 8 8
4 13 10 15 16 15 7 11 11 6 7 7 6 -2 3 4 4 4 4 4 4 5 5 4 4 6 6 7 3 6 6 6 5 5 4 7 9 8 6 5 7 4 4
18 -4 3 9 8 10 8 5 11 4 8 3 -1 3 5 4 3 4 4 4 4 5 4 4 4 4 3 9 6 5 5 5 8 5 6 5 6 7 7 8 5 6 6
-2 1 7 6 7 9 7 7 4 2 4 4 4 4 4 3 3 4 4 4 5 5 4 4 4 4 5 3 7 5 6 7 4 5 4 8 6 6 5 5 6 5 8
6 10 7 7 7 6 6 6 6 5 5 5 4 4 3 4 4 4 4 5 5 6 6 6 6 6 6 6 3 6 5 5 6 4 3 4 8 6 6 8 5 7 2
5 5 5 5 5 4 5 5 6 5 5 4 4 4 5 4 4 4 4 5 5 5 5 6 7 8 9 9 8 4 5 7 5 5 5 5 6 7 7 7 8 9 8
5 5 6 6 6 6 5 5 5 5 5 5 5 5 4 4 5 5 5 5 4 4 3 4 3 4 4 6 9 10 5 5 7 6 5 6 4 4 4 5 7 8 9
5 6 6 6 5 6 6 6 6 6 6 6 6 6 6 7 5 4 4 3 3 3 3 3 4 5 6 7 6 5 7 9 4 6 8 5 3 2 3 2 2 3 4
4 4 3 3 3 3 3 4 5 6 7 7 8 6 5 4 5 4 3 4 3 5 6 7 7 7 7 7 8 10 12 9 5 7 5 7 6 2 2 2 4 1 2
4 4 4 4 4 5 5 4 4 6 7 6 5 4 2 2 3 5 7 10 9 11 12 13 13 15 14 15 15 14 12 13 12 10 6 5 5 6 4 2 3 3 3
4 3 3 3 4 5 5 5 7 6 4 3 4 4 4 4 5 8 8 5 7 11 14 16 13 14 12 13 13 12 12 12 12 12 13 12 13 8 5 8 -0 1 3
5 6 6 5 5 4 4 3 4 5 5 4 3 2 4 5 8 4 5 4 10 12 13 14 14 11 12 12 11 13 9 10 13 15 10 7 9 18 14 8 7 3 4
9 10 10 9 6 5 4 5 6 5 4 2 3 4 8 10 7 3 3 12 19 13 13 11 8 10 10 14 12 14 15 16 13 16 21 11 10 10 10 17 11 8 7
11 11 9 7 7 6 7 7 6 4 3 4 5 12 7 6 4 7 25 21 5 11 12 10 11 10 12 9 5 8 9 8 11 13 15 15 16 9 12 15 10 13 12
11 11 9 10 10 10 9 10 10 10 10 12 8 3 4 20 31 22 8 11 12 16 10 8 6 4 5 6 7 9 9 9 13 12 11 12 28 23 17 12 10 18 12
17 16 18 14 15 13 11 9 9 8 5 5 6 33 20 6 6 8 11 12 10 6 6 7 9 9 5 7 13 13 13 12 5 14 20 22 22 12 22 34 25 14 16
11 7 8 5 7 8 10 8 3 11 37 57 10 7 2 14 19 7 10 6 6 3 6 8 9 10 14 12 16 11 9 12 19 10 15 20 17 18 14 10 22 44 19
13 13 12 12 13 11 11 17 21 10 3 14 17 16 25 18 8 6 5 4 3 9 13 10 7 16 16 5 12 20 22 21 15 11 10 11 13 13 17 14 7 23 40
Height
5844 5844 5844 5844 5844 5845 5845 5844 5843 5842 5841 5841 5840 5839 5838 5836 5835 5835 5834 5832 5832 5831 5830 5829 5829 5829 5829 5829 5828 5828 5828 5828 5827 5827 5827 5826 5825 5826 5827 5827 5826 5826 5826
5840 5841 5841 5841 5839 5840 5841 5840 5840 5838 5838 5837 5836 5835 5834 5833 5833 5832 5831 5830 5829 5828 5827 5826 5826 5826 5825 5824 5824 5824 5825 5824 5823 5823 5823 5823 5823 5823 5823 5823 5823 5824 5823
5837 5837 5837 5837 5837 5836 5835 5836 5835 5834 5833 5833 5831 5831 5830 5829 5829 5827 5827 5826 5825 5825 5824 5823 5823 5823 5821 5821 5821 5820 5820 5820 5819 5819 5819 5820 5819 5819 5819 5820 5820 5820 5820
5833 5833 5833 5833 5833 5832 5832 5832 5831 5831 5830 5828 5827 5826 5825 5825 5825 5824 5823 5823 5822 5821 5820 5819 5818 5818 5817 5816 5816 5815 5815 5815 5815 5815 5815 5816 5817 5816 5816 5816 5816 5816 5816
5828 5828 5828 5829 5828 5828 5828 5828 5826 5826 5825 5824 5824 5822 5821 5821 5820 5820 5820 5819 5818 5817 5817 5816 5815 5814 5813 5812 5811 5811 5811 5810 5810 5810 5810 5811 5812 5813 5812 5812 5812 5813 5813
5822 5823 5823 5825 5824 5823 5823 5822 5822 5820 5821 5820 5818 5817 5816 5816 5815 5815 5815 5814 5814 5813 5812 5812 5811 5810 5809 5808 5807 5807 5807 5807 5806 5806 5805 5806 5807 5808 5808 5808 5808 5809 5809
5818 5818 5819 5819 5818 5818 5817 5817 5816 5815 5814 5815 5814 5812 5811 5812 5811 5812 5811 5810 5810 5810 5808 5808 5807 5805 5804 5803 5804 5803 5803 5803 5802 5802 5801 5801 5802 5804 5804 5804 5804 5805 5806
5813 5813 5814 5813 5812 5811 5810 5810 5810 5809 5809 5808 5809 5807 5808 5808 5807 5807 5807 5807 5806 5806 5805 5803 5801 5801 5801 5800 5799 5798 5798 5798 5798 5798 5798 5797 5797 5798 5800 5800 5800 5801 5801
5808 5808 5808 5806 5807 5805 5803 5802 5803 5797 5804 5804 5803 5804 5804 5802 5802 5803 5802 5801 5801 5801 5800 5798 5796 5795 5795 5795 5795 5795 5794 5794 5794 5793 5794 5793 5793 5793 5795 5795 5795 5796 5797
5803 5802 5801 5799 5800 5798 5797 5795 5796 5798 5798 5798 5797 5798 5798 5797 5797 5797 5796 5795 5795 5794 5793 5792 5791 5790 5790 5789 5789 5789 5789 5789 5788 5789 5788 5788 5789 5789 5789 5790 5791 5791 5791
5798 5797 5796 5794 5794 5793 5793 5792 5792 5793 5793 5794 5793 5793 5792 5792 5792 5791 5791 5790 5790 5789 5788 5787 5786 5785 5784 5783 5783 5783 5782 5782 5783 5782 5782 5783 5781 5783 5784 5784 5785 5786 5786
5794 5792 5790 5789 5788 5789 5788 5788 5788 5788 5788 5788 5787 5787 5786 5786 5785 5785 5785 5784 5784 5783 5782 5780 5780 5779 5779 5777 5777 5777 5776 5776 5775 5775 5775 5777 5776 5775 5776 5778 5778 5779 5780
5787 5787 5785 5783 5783 5783 5783 5782 5782 5782 5781 5781 5780 5779 5779 5778 5778 5777 5777 5777 5776 5775 5774 5773 5773 5773 5772 5771 5771 5770 5769 5768 5768 5768 5767 5769 5770 5768 5769 5770 5771 5771 5772
5781 5780 5779 5778 5777 5776 5776 5775 5775 5775 5774 5773 5772 5772 5772 5771 5770 5769 5768 5767 5766 5765 5765 5764 5764 5764 5764 5763 5762 5761 5760 5760 5760 5759 5759 5759 5761 5761 5761 5762 5764 5763 5765
5773 5772 5772 5772 5771 5770 5770 5769 5768 5768 5767 5766 5766 5765 5764 5764 5762 5761 5759 5758 5757 5757 5755 5755 5754 5754 5754 5753 5753 5752 5751 5751 5750 5750 5751 5751 5752 5752 5752 5753 5754 5755 5756
5765 5765 5764 5764 5763 5763 5762 5762 5761 5760 5759 5758 5757 5757 5756 5755 5754 5752 5750 5748 5747 5746 5745 5744 5744 5743 5742 5741 5741 5741 5740 5740 5740 5741 5740 5741 5742 5742 5741 5742 5745 5747 5748
5758 5757 5757 5756 5755 5754 5754 5753 5753 5752 5751 5750 5749 5749 5747 5746 5744 5742 5740 5738 5736 5735 5733 5732 5731 5730 5728 5728 5728 5727 5727 5726 5726 5726 5727 5728 5730 5730 5731 5732 5732 5735 5737
5750 5750 5749 5748 5747 5747 5746 5745 5744 5743 5742 5742 5741 5740 5738 5736 5734 5731 5728 5726 5725 5723 5721 5718 5717 5715 5715 5715 5713 5712 5712 5711 5710 5711 5711 5713 5714 5716 5718 5718 5720 5723 5725
5741 5740 5739 5739 5738 5738 5737 5736 5736 5735 5734 5734 5733 5731 5729 5727 5723 5720 5717 5716 5713 5710 5707 5706 5704 5702 5701 5700 5699 5697 5696 5695 5694 5694 5694 5695 5696 5698 5700 5705 5708 5708 5709
5731 5731 5730 5730 5729 5727 5726 5726 5726 5725 5724 5723 5721 5719 5717 5714 5711 5709 5706 5703 5700 5697 5695 5693 5691 5690 5688 5687 5685 5683 5681 5680 5678 5677 5677 5678 5676 5678 5682 5685 5689 5692 5693
5723 5723 5722 5720 5719 5717 5716 5715 5714 5714 5713 5711 5710 5708 5705 5702 5699 5696 5694 5691 5688 5686 5684 5682 5680 5678 5676 5674 5672 5669 5666 5666 5662 5660 5659 5660 5659 5660 5663 5665 5671 5674 5678
5712 5712 5711 5710 5708 5707 5706 5705 5704 5702 5700 5699 5697 5695 5692 5690 5688 5685 5682 5679 5677 5675 5673 5671 5669 5666 5664 5661 5659 5656 5653 5649 5645 5643 5641 5643 5642 5643 5644 5647 5650 5652 5657
5701 5700 5699 5698 5697 5696 5695 5693 5692 5690 5688 5687 5685 5683 5680 5678 5675 5673 5671 5669 5668 5664 5662 5659 5656 5653 5650 5647 5644 5642 5639 5636 5632 5626 5625 5625 5625 5626 5625 5627 5629 5632 5636
5690 5689 5687 5687 5686 5685 5683 5682 5680 5678 5676 5674 5673 5672 5668 5667 5664 5662 5660 5658 5657 5653 5650 5647 5644 5640 5637 5633 5630 5629 5625 5623 5620 5615 5610 5609 5608 5608 5607 5607 5610 5613 5616
5679 5678 5677 5676 5674 5673 5673 5671 5669 5668 5666 5665 5662 5661 5658 5656 5653 5652 5651 5648 5646 5643 5640 5637 5634 5630 5626 5623 5619 5615 5612 5609 5606 5603 5601 5597 5595 5595 5594 5592 5591 5593 5597
5668 5666 5665 5664 5663 5663 5663 5661 5659 5658 5656 5654 5652 5650 5648 5647 5645 5644 5642 5639 5637 5634 5631 5627 5624 5620 5616 5613 5608 5604 5601 5599 5595 5593 5591 5589 5586 5584 5582 5579 5577 5577 5580